EWG7XR EDDK-LOWW

Flight info

Callsign EWG7XR
Flight time 1h 8m
Altitude 35000
Route KUMIK1R KUMIK L603 TESGA DCT ESATI DCT BARSU DCT EKSOS DCT LULAR DCT RUDAP DCT BUDEX BUDEX2W
Aircraft A319/M-SDE2E3FGIJ1RWXYZ/EB1

Departure

Time 2026-05-06 16:30
Airport Cologne Bonn Airport (EDDK)

Arrival

Time 2026-05-06 17:38
Airport Vienna International Airport (LOWW)
Time Latitude Longitude Altitude Speed Heading
2026-05-06 15:14 50.87698 7.12380 234 ft 0 kts 288°
2026-05-06 15:15 50.87696 7.12387 234 ft 0 kts 288°
2026-05-06 16:13 50.87688 7.12422 234 ft 4 kts 288°
2026-05-06 16:13 50.87681 7.12455 233 ft 4 kts 298°
2026-05-06 16:13 50.87665 7.12484 234 ft 4 kts 343°
2026-05-06 16:13 50.87641 7.12485 232 ft 4 kts 15°
2026-05-06 16:14 50.87627 7.12478 235 ft 0 kts 18°
2026-05-06 16:15 50.87637 7.12483 232 ft 4 kts 18°
2026-05-06 16:16 50.87681 7.12505 234 ft 9 kts 18°
2026-05-06 16:16 50.87754 7.12564 232 ft 15 kts 53°
2026-05-06 16:16 50.87753 7.12723 234 ft 15 kts 131°
2026-05-06 16:16 50.87677 7.12831 232 ft 14 kts 139°
2026-05-06 16:17 50.87609 7.12930 232 ft 13 kts 137°
2026-05-06 16:17 50.87540 7.13030 232 ft 13 kts 137°
2026-05-06 16:17 50.87476 7.13121 232 ft 11 kts 138°
2026-05-06 16:17 50.87422 7.13200 232 ft 10 kts 137°
2026-05-06 16:18 50.87372 7.13274 232 ft 10 kts 137°
2026-05-06 16:18 50.87325 7.13343 232 ft 9 kts 137°
2026-05-06 16:18 50.87275 7.13414 233 ft 9 kts 137°
2026-05-06 16:18 50.87228 7.13483 235 ft 9 kts 136°
2026-05-06 16:19 50.87178 7.13557 237 ft 10 kts 137°
2026-05-06 16:19 50.87120 7.13642 239 ft 12 kts 138°
2026-05-06 16:19 50.87056 7.13733 242 ft 12 kts 138°
2026-05-06 16:19 50.86996 7.13818 244 ft 12 kts 137°
2026-05-06 16:20 50.86934 7.13908 249 ft 12 kts 137°
2026-05-06 16:20 50.86877 7.13991 254 ft 11 kts 137°
2026-05-06 16:20 50.86815 7.14080 255 ft 14 kts 137°
2026-05-06 16:20 50.86728 7.14145 256 ft 13 kts 155°
2026-05-06 16:21 50.86665 7.14232 260 ft 13 kts 137°
2026-05-06 16:21 50.86580 7.14354 262 ft 20 kts 138°
2026-05-06 16:21 50.86484 7.14499 267 ft 18 kts 137°
2026-05-06 16:21 50.86402 7.14619 272 ft 15 kts 137°
2026-05-06 16:22 50.86322 7.14736 277 ft 17 kts 137°
2026-05-06 16:22 50.86230 7.14870 282 ft 20 kts 137°
2026-05-06 16:22 50.86120 7.15028 287 ft 23 kts 137°
2026-05-06 16:22 50.85990 7.15214 293 ft 26 kts 137°
2026-05-06 16:23 50.85858 7.15407 298 ft 25 kts 137°
2026-05-06 16:23 50.85745 7.15571 301 ft 18 kts 137°
2026-05-06 16:23 50.85658 7.15697 303 ft 15 kts 137°
2026-05-06 16:23 50.85586 7.15801 305 ft 13 kts 137°
2026-05-06 16:24 50.85514 7.15906 310 ft 15 kts 137°
2026-05-06 16:24 50.85429 7.16028 308 ft 18 kts 137°
2026-05-06 16:24 50.85349 7.16174 308 ft 18 kts 114°
2026-05-06 16:24 50.85346 7.16356 308 ft 16 kts 72°
2026-05-06 16:25 50.85408 7.16483 308 ft 11 kts 34°
2026-05-06 16:25 50.85422 7.16494 308 ft 0 kts 25°
2026-05-06 16:28 50.85429 7.16499 308 ft 2 kts 25°
2026-05-06 16:28 50.85459 7.16515 308 ft 8 kts 13°
2026-05-06 16:28 50.85528 7.16518 308 ft 11 kts 358°
2026-05-06 16:29 50.85586 7.16474 308 ft 0 kts 317°
2026-05-06 16:29 50.85623 7.16420 309 ft 27 kts 317°
2026-05-06 16:29 50.85915 7.15995 301 ft 86 kts 317°
2026-05-06 16:30 50.86494 7.15158 283 ft 141 kts 317°
2026-05-06 16:30 50.86747 7.14793 373 ft 146 kts 318°
2026-05-06 16:30 50.87993 7.13010 1517 ft 146 kts 318°
2026-05-06 16:30 50.88799 7.11868 1895 ft 167 kts 322°
2026-05-06 16:31 50.89944 7.11225 2168 ft 192 kts
2026-05-06 16:31 50.91216 7.12009 2912 ft 199 kts 25°
2026-05-06 16:31 50.92460 7.12996 3819 ft 202 kts 24°
2026-05-06 16:31 50.93585 7.14398 4663 ft 214 kts 51°
2026-05-06 16:32 50.94350 7.16504 5449 ft 229 kts 62°
2026-05-06 16:32 50.95098 7.18878 6081 ft 253 kts 63°
2026-05-06 16:32 50.95920 7.21495 6701 ft 275 kts 63°
2026-05-06 16:32 50.96794 7.24279 7519 ft 286 kts 63°
2026-05-06 16:33 50.97693 7.27139 8462 ft 292 kts 64°
2026-05-06 16:33 50.98608 7.30055 9373 ft 299 kts 64°
2026-05-06 16:33 50.99544 7.33041 10194 ft 305 kts 64°
2026-05-06 16:34 51.01172 7.39361 11794 ft 315 kts 79°
2026-05-06 16:34 51.01414 7.42840 12599 ft 319 kts 94°
2026-05-06 16:34 51.00896 7.46234 13369 ft 319 kts 118°
2026-05-06 16:34 51.00135 7.48224 13843 ft 320 kts 129°
2026-05-06 16:35 50.98758 7.51154 14047 ft 343 kts 130°
2026-05-06 16:35 50.97279 7.54225 14499 ft 354 kts 130°
2026-05-06 16:35 50.95257 7.58399 15434 ft 359 kts 130°
2026-05-06 16:35 50.94248 7.60490 15936 ft 361 kts 130°
2026-05-06 16:36 50.92699 7.63709 16686 ft 364 kts 130°
2026-05-06 16:36 50.91178 7.66879 17410 ft 367 kts 131°
2026-05-06 16:36 50.89574 7.70043 18131 ft 370 kts 133°
2026-05-06 16:36 50.87885 7.73138 18713 ft 373 kts 135°
2026-05-06 16:37 50.86152 7.76206 19298 ft 376 kts 135°
2026-05-06 16:37 50.84403 7.79309 19891 ft 379 kts 135°
2026-05-06 16:37 50.82650 7.82456 20485 ft 383 kts 134°
2026-05-06 16:37 50.80891 7.85647 21059 ft 386 kts 134°
2026-05-06 16:38 50.79124 7.88873 21623 ft 390 kts 134°
2026-05-06 16:38 50.77360 7.92114 22187 ft 393 kts 134°
2026-05-06 16:38 50.75570 7.95411 22765 ft 397 kts 134°
2026-05-06 16:38 50.73766 7.98724 23334 ft 400 kts 134°
2026-05-06 16:39 50.71941 8.02060 23849 ft 402 kts 135°
2026-05-06 16:39 50.70107 8.05399 24347 ft 404 kts 135°
2026-05-06 16:39 50.68262 8.08759 24844 ft 406 kts 135°
2026-05-06 16:39 50.66410 8.12127 25335 ft 407 kts 135°
2026-05-06 16:40 50.64550 8.15502 25825 ft 409 kts 135°
2026-05-06 16:40 50.62675 8.18898 26297 ft 411 kts 135°
2026-05-06 16:40 50.60796 8.22293 26762 ft 413 kts 135°
2026-05-06 16:40 50.58907 8.25701 27231 ft 414 kts 135°
2026-05-06 16:41 50.57010 8.29129 27744 ft 415 kts 134°
2026-05-06 16:41 50.55207 8.32664 28261 ft 419 kts 126°
2026-05-06 16:41 50.53882 8.36798 28743 ft 424 kts 118°
2026-05-06 16:41 50.52675 8.41028 29230 ft 425 kts 118°
2026-05-06 16:42 50.51452 8.45244 29858 ft 422 kts 118°
2026-05-06 16:42 50.50221 8.49418 30402 ft 420 kts 118°
2026-05-06 16:42 50.48984 8.53570 30877 ft 420 kts 119°
2026-05-06 16:42 50.47742 8.57714 31337 ft 420 kts 119°
2026-05-06 16:43 50.46500 8.61866 31793 ft 420 kts 119°
2026-05-06 16:43 50.45265 8.66016 32273 ft 420 kts 119°
2026-05-06 16:43 50.44033 8.70168 32770 ft 420 kts 118°
2026-05-06 16:43 50.42801 8.74329 33271 ft 421 kts 118°
2026-05-06 16:44 50.41567 8.78497 33721 ft 421 kts 119°
2026-05-06 16:44 50.40333 8.82655 33995 ft 421 kts 119°
2026-05-06 16:44 50.39094 8.86812 34224 ft 421 kts 119°
2026-05-06 16:44 50.37849 8.90964 34461 ft 421 kts 119°
2026-05-06 16:45 50.36602 8.95111 34683 ft 421 kts 119°
2026-05-06 16:45 50.34127 9.03347 34800 ft 421 kts 119°
2026-05-06 16:46 50.31627 9.11676 34799 ft 420 kts 119°
2026-05-06 16:46 50.29128 9.19934 34800 ft 420 kts 119°
2026-05-06 16:47 50.26632 9.28121 34795 ft 421 kts 120°
2026-05-06 16:47 50.24110 9.36370 34794 ft 421 kts 120°
2026-05-06 16:48 50.21594 9.44625 34788 ft 420 kts 120°
2026-05-06 16:48 50.19076 9.52855 34784 ft 420 kts 120°
2026-05-06 16:49 50.16531 9.61128 34781 ft 420 kts 120°
2026-05-06 16:49 50.14010 9.69303 34761 ft 421 kts 121°
2026-05-06 16:50 50.11463 9.77547 34754 ft 423 kts 121°
2026-05-06 16:50 50.08889 9.85816 34758 ft 425 kts 121°
2026-05-06 16:51 50.06303 9.94113 34757 ft 427 kts 121°
2026-05-06 16:51 50.03710 10.02425 34762 ft 427 kts 121°
2026-05-06 16:52 50.01093 10.10739 34742 ft 428 kts 122°
2026-05-06 16:52 49.98459 10.19072 34752 ft 431 kts 122°
2026-05-06 16:53 49.95813 10.27431 34755 ft 432 kts 122°
2026-05-06 16:53 49.93150 10.35803 34769 ft 433 kts 122°
2026-05-06 16:54 49.90609 10.44303 34765 ft 436 kts 118°
2026-05-06 16:54 49.88399 10.53079 34749 ft 438 kts 117°
2026-05-06 16:55 49.86231 10.61916 34749 ft 439 kts 117°
2026-05-06 16:55 49.83980 10.70710 34753 ft 439 kts 118°
2026-05-06 16:56 49.81677 10.79479 34757 ft 440 kts 118°
2026-05-06 16:56 49.79362 10.88246 34761 ft 440 kts 118°
2026-05-06 16:57 49.77050 10.97018 34754 ft 441 kts 118°
2026-05-06 16:57 49.74738 11.05787 34768 ft 440 kts 118°
2026-05-06 16:58 49.72416 11.14535 34770 ft 439 kts 118°
2026-05-06 16:58 49.70091 11.23261 34770 ft 439 kts 118°
2026-05-06 16:59 49.67767 11.31976 34760 ft 439 kts 118°
2026-05-06 16:59 49.65434 11.40684 34748 ft 439 kts 118°
2026-05-06 17:00 49.63395 11.49591 34768 ft 441 kts 113°
2026-05-06 17:00 49.61560 11.58608 34775 ft 439 kts 115°
2026-05-06 17:01 49.59525 11.67468 34769 ft 437 kts 116°
2026-05-06 17:01 49.57441 11.76264 34747 ft 437 kts 116°
2026-05-06 17:02 49.55390 11.85077 34750 ft 437 kts 116°
2026-05-06 17:02 49.53362 11.93901 34753 ft 437 kts 116°
2026-05-06 17:03 49.51341 12.02646 34756 ft 436 kts 116°
2026-05-06 17:03 49.49292 12.11434 34747 ft 436 kts 116°
2026-05-06 17:04 49.47242 12.20212 34708 ft 436 kts 117°
2026-05-06 17:04 49.45169 12.29030 34711 ft 436 kts 117°
2026-05-06 17:05 49.43111 12.37775 34718 ft 436 kts 117°
2026-05-06 17:05 49.41037 12.46516 34717 ft 436 kts 117°
2026-05-06 17:06 49.38973 12.55196 34727 ft 435 kts 117°
2026-05-06 17:06 49.36885 12.63967 34712 ft 437 kts 117°
2026-05-06 17:07 49.34792 12.72706 34720 ft 436 kts 117°
2026-05-06 17:07 49.32693 12.81435 34716 ft 436 kts 117°
2026-05-06 17:08 49.30596 12.90158 34718 ft 436 kts 117°
2026-05-06 17:08 49.28493 12.98871 34720 ft 436 kts 117°
2026-05-06 17:09 49.26379 13.07576 34723 ft 436 kts 117°
2026-05-06 17:09 49.24256 13.16255 34724 ft 436 kts 117°
2026-05-06 17:10 49.22128 13.24940 34722 ft 435 kts 117°
2026-05-06 17:10 49.20008 13.33615 34722 ft 435 kts 117°
2026-05-06 17:11 49.17880 13.42271 34702 ft 435 kts 117°
2026-05-06 17:11 49.15758 13.50861 34709 ft 435 kts 117°
2026-05-06 17:12 49.13587 13.59547 34423 ft 435 kts 118°
2026-05-06 17:12 49.12514 13.63848 34183 ft 431 kts 118°
2026-05-06 17:12 49.11450 13.68109 33946 ft 429 kts 118°
2026-05-06 17:12 49.10384 13.72367 33705 ft 429 kts 118°
2026-05-06 17:13 49.09317 13.76624 33436 ft 430 kts 118°
2026-05-06 17:13 49.08261 13.80822 33113 ft 430 kts 118°
2026-05-06 17:13 49.07190 13.85079 32843 ft 431 kts 118°
2026-05-06 17:13 49.06099 13.89405 32568 ft 431 kts 118°
2026-05-06 17:14 49.05031 13.93623 32311 ft 432 kts 118°
2026-05-06 17:14 49.03934 13.97956 32045 ft 433 kts 118°
2026-05-06 17:14 49.02863 14.02180 31791 ft 433 kts 118°
2026-05-06 17:14 49.01777 14.06467 31526 ft 434 kts 118°
2026-05-06 17:15 49.00689 14.10755 31268 ft 435 kts 118°
2026-05-06 17:15 48.99595 14.15045 31016 ft 435 kts 118°
2026-05-06 17:15 48.98489 14.19355 30760 ft 439 kts 118°
2026-05-06 17:15 48.97375 14.23687 30467 ft 441 kts 119°
2026-05-06 17:16 48.96256 14.28044 30236 ft 443 kts 118°
2026-05-06 17:16 48.95056 14.32348 29985 ft 438 kts 124°
2026-05-06 17:16 48.93499 14.36270 29729 ft 430 kts 134°
2026-05-06 17:16 48.91693 14.39867 29375 ft 425 kts 135°
2026-05-06 17:17 48.89900 14.43415 28838 ft 422 kts 135°
2026-05-06 17:17 48.88122 14.46936 28313 ft 418 kts 135°
2026-05-06 17:17 48.86360 14.50419 27797 ft 414 kts 135°
2026-05-06 17:17 48.84611 14.53872 27299 ft 411 kts 135°
2026-05-06 17:18 48.82878 14.57291 26793 ft 407 kts 135°
2026-05-06 17:18 48.81155 14.60681 26307 ft 403 kts 135°
2026-05-06 17:18 48.79453 14.64032 25853 ft 400 kts 135°
2026-05-06 17:18 48.77764 14.67356 25396 ft 396 kts 135°
2026-05-06 17:19 48.76652 14.69541 25102 ft 394 kts 135°
2026-05-06 17:19 48.74982 14.72810 24669 ft 391 kts 135°
2026-05-06 17:19 48.73325 14.76051 24248 ft 387 kts 135°
2026-05-06 17:19 48.71685 14.79257 23835 ft 384 kts 134°
2026-05-06 17:20 48.70053 14.82442 23410 ft 381 kts 134°
2026-05-06 17:20 48.68440 14.85591 22912 ft 377 kts 134°
2026-05-06 17:20 48.66836 14.88717 22405 ft 374 kts 134°
2026-05-06 17:20 48.65244 14.91817 21887 ft 372 kts 134°
2026-05-06 17:21 48.63659 14.94893 21328 ft 369 kts 134°
2026-05-06 17:21 48.62084 14.97943 20784 ft 367 kts 134°
2026-05-06 17:21 48.60523 15.00973 20272 ft 365 kts 133°
2026-05-06 17:21 48.59176 15.04245 19786 ft 369 kts 122°
2026-05-06 17:22 48.58251 15.07886 19300 ft 374 kts 111°
2026-05-06 17:22 48.57606 15.11678 18817 ft 372 kts 110°
2026-05-06 17:22 48.56965 15.15445 18355 ft 369 kts 110°
2026-05-06 17:22 48.56325 15.19178 17877 ft 366 kts 110°
2026-05-06 17:23 48.55647 15.22865 17350 ft 360 kts 115°
2026-05-06 17:23 48.54596 15.26238 16835 ft 353 kts 122°
2026-05-06 17:23 48.53494 15.29537 16313 ft 351 kts 122°
2026-05-06 17:23 48.52399 15.32809 15810 ft 348 kts 122°
2026-05-06 17:24 48.51314 15.36049 15330 ft 344 kts 121°
2026-05-06 17:24 48.50236 15.39260 14844 ft 342 kts 121°
2026-05-06 17:24 48.49162 15.42439 14371 ft 339 kts 121°
2026-05-06 17:24 48.48094 15.45588 13905 ft 336 kts 121°
2026-05-06 17:25 48.47035 15.48712 13445 ft 334 kts 121°
2026-05-06 17:25 48.45981 15.51820 12933 ft 332 kts 121°
2026-05-06 17:25 48.44938 15.54895 12419 ft 328 kts 121°
2026-05-06 17:25 48.43904 15.57947 11908 ft 326 kts 121°
2026-05-06 17:26 48.42876 15.60984 11430 ft 325 kts 121°
2026-05-06 17:26 48.41855 15.63992 11043 ft 320 kts 121°
2026-05-06 17:26 48.40853 15.66942 10775 ft 312 kts 121°
2026-05-06 17:26 48.39890 15.69773 10518 ft 304 kts 120°
2026-05-06 17:27 48.38935 15.72573 10280 ft 298 kts 120°
2026-05-06 17:27 48.37994 15.75324 9964 ft 294 kts 120°
2026-05-06 17:27 48.37056 15.78057 9595 ft 293 kts 121°
2026-05-06 17:27 48.36121 15.80778 9199 ft 292 kts 120°
2026-05-06 17:28 48.35191 15.83487 8822 ft 291 kts 120°
2026-05-06 17:28 48.34267 15.86183 8444 ft 289 kts 121°
2026-05-06 17:28 48.33347 15.88866 8060 ft 289 kts 121°
2026-05-06 17:28 48.32429 15.91536 7708 ft 287 kts 121°
2026-05-06 17:29 48.31520 15.94181 7425 ft 283 kts 121°
2026-05-06 17:29 48.30625 15.96788 7100 ft 278 kts 121°
2026-05-06 17:29 48.29766 15.99336 6745 ft 270 kts 120°
2026-05-06 17:29 48.28957 16.01837 6385 ft 263 kts 119°
2026-05-06 17:30 48.28186 16.04258 6145 ft 251 kts 119°
2026-05-06 17:30 48.27453 16.06571 5880 ft 239 kts 121°
2026-05-06 17:30 48.26758 16.08761 5624 ft 225 kts 121°
2026-05-06 17:30 48.26092 16.10826 5387 ft 216 kts 122°
2026-05-06 17:31 48.25435 16.12821 5135 ft 212 kts 123°
2026-05-06 17:31 48.24781 16.14795 4998 ft 211 kts 123°
2026-05-06 17:31 48.24117 16.16733 4999 ft 208 kts 123°
2026-05-06 17:31 48.23475 16.18665 4993 ft 206 kts 122°
2026-05-06 17:32 48.22853 16.20590 4994 ft 202 kts 122°
2026-05-06 17:32 48.22249 16.22469 4982 ft 199 kts 123°
2026-05-06 17:32 48.21656 16.24319 4846 ft 193 kts 123°
2026-05-06 17:32 48.21084 16.26098 4588 ft 189 kts 123°
2026-05-06 17:33 48.20521 16.27850 4326 ft 185 kts 123°
2026-05-06 17:33 48.19968 16.29566 4091 ft 181 kts 123°
2026-05-06 17:33 48.19427 16.31246 3848 ft 178 kts 123°
2026-05-06 17:33 48.18894 16.32901 3603 ft 175 kts 123°
2026-05-06 17:34 48.18372 16.34521 3374 ft 170 kts 123°
2026-05-06 17:34 48.17867 16.36089 3152 ft 164 kts 124°
2026-05-06 17:34 48.17376 16.37610 2927 ft 160 kts 124°
2026-05-06 17:34 48.16900 16.39084 2722 ft 155 kts 124°
2026-05-06 17:35 48.16444 16.40495 2505 ft 145 kts 124°
2026-05-06 17:35 48.16018 16.41814 2325 ft 137 kts 124°
2026-05-06 17:35 48.15611 16.43070 2144 ft 131 kts 125°
2026-05-06 17:36 48.14814 16.45526 1751 ft 130 kts 128°
2026-05-06 17:36 48.14417 16.46750 1578 ft 131 kts 126°
2026-05-06 17:36 48.14022 16.47969 1401 ft 129 kts 126°
2026-05-06 17:36 48.13627 16.49184 1224 ft 132 kts 126°
2026-05-06 17:37 48.13234 16.50401 1057 ft 128 kts 128°
2026-05-06 17:37 48.12845 16.51603 894 ft 127 kts 125°
2026-05-06 17:37 48.12459 16.52787 725 ft 127 kts 124°
2026-05-06 17:37 48.12074 16.53968 609 ft 118 kts 117°
2026-05-06 17:38 48.11787 16.54855 615 ft 71 kts 116°
2026-05-06 17:38 48.11606 16.55401 612 ft 50 kts 115°
2026-05-06 17:38 48.11507 16.55781 608 ft 32 kts 99°
2026-05-06 17:38 48.11505 16.56045 608 ft 18 kts 85°
2026-05-06 17:39 48.11573 16.56155 611 ft 15 kts
2026-05-06 17:39 48.11612 16.56041 612 ft 14 kts 295°
2026-05-06 17:39 48.11656 16.55901 612 ft 16 kts 295°
2026-05-06 17:39 48.11707 16.55747 615 ft 17 kts 297°
2026-05-06 17:40 48.11759 16.55590 608 ft 15 kts 296°
2026-05-06 17:40 48.11802 16.55457 613 ft 15 kts 298°
2026-05-06 17:40 48.11894 16.55436 614 ft 14 kts
2026-05-06 17:40 48.11991 16.55492 608 ft 16 kts 27°
2026-05-06 17:41 48.12073 16.55556 614 ft 7 kts 46°
2026-05-06 17:41 48.12058 16.55620 617 ft 8 kts 116°
2026-05-06 17:41 48.12051 16.55642 613 ft 0 kts 116°